When you browse on this site, cookies collect data to enhance your experience and personalize the content and advertising you see.
Visit our Privacy Policy to learn more. By continuing to use the site, you agree to this use of cookies and data.

Météo par heure à Bük

Ce jour, 14 Juillet, Mardi

Heure Température Précipitation Vent Pression Humidité
00:00 +14°C° 0 mm 1 m/s 747 mmHg 76%
01:00 +13°C° 0 mm 1 m/s 747 mmHg 78%
02:00 +13°C° 0 mm 1 m/s 747 mmHg 79%
03:00 +13°C° 0 mm 1 m/s 747 mmHg 80%
04:00 +12°C° 0 mm 1 m/s 746 mmHg 81%
05:00 +14°C° 0 mm 1 m/s 746 mmHg 76%
06:00 +15°C° 0 mm 1 m/s 746 mmHg 71%
07:00 +18°C° 0 mm 1 m/s 746 mmHg 66%
08:00 +19°C° 0 mm 1 m/s 746 mmHg 61%
09:00 +20°C° 0 mm 2 m/s 746 mmHg 57%
10:00 +21°C° 0 mm 2 m/s 746 mmHg 52%
11:00 +23°C° 0 mm 2 m/s 746 mmHg 49%
12:00 +24°C° 0 mm 2 m/s 745 mmHg 46%
13:00 +25°C° 0 mm 2 m/s 745 mmHg 43%
14:00 +25°C° 0 mm 3 m/s 744 mmHg 44%
15:00 +25°C° 0 mm 3 m/s 744 mmHg 44%
16:00 +25°C° 0 mm 3 m/s 744 mmHg 45%
17:00 +24°C° 0 mm 3 m/s 743 mmHg 51%
18:00 +21°C° 0 mm 3 m/s 743 mmHg 56%
19:00 +20°C° 0 mm 2 m/s 743 mmHg 62%
20:00 +18°C° 0 mm 2 m/s 744 mmHg 65%
21:00 +17°C° 0 mm 2 m/s 744 mmHg 68%
22:00 +16°C° 0 mm 2 m/s 744 mmHg 71%
23:00 +15°C° 0 mm 2 m/s 744 mmHg 72%

Demain, 15 Juillet, Mercredi

Heure Température Précipitation Vent Pression Humidité
00:00 +15°C° 0 mm 2 m/s 744 mmHg 74%
01:00 +14°C° 0 mm 2 m/s 744 mmHg 75%
02:00 +14°C° 0 mm 2 m/s 744 mmHg 77%
03:00 +13°C° 0 mm 2 m/s 743 mmHg 79%
04:00 +13°C° 0 mm 2 m/s 743 mmHg 80%
05:00 +15°C° 0 mm 2 m/s 743 mmHg 75%
06:00 +16°C° 0 mm 2 m/s 744 mmHg 70%
07:00 +18°C° 0 mm 3 m/s 744 mmHg 65%
08:00 +20°C° 0 mm 3 m/s 744 mmHg 59%
09:00 +22°C° 0 mm 3 m/s 744 mmHg 54%
10:00 +23°C° 0 mm 4 m/s 744 mmHg 48%
11:00 +25°C° 0 mm 4 m/s 743 mmHg 46%
12:00 +26°C° 0 mm 4 m/s 743 mmHg 44%
13:00 +27°C° 0 mm 3 m/s 743 mmHg 41%
14:00 +27°C° 0 mm 3 m/s 743 mmHg 41%
15:00 +27°C° 0 mm 3 m/s 742 mmHg 40%
16:00 +27°C° 0 mm 3 m/s 742 mmHg 40%
17:00 +25°C° 0 mm 2 m/s 742 mmHg 46%
18:00 +24°C° 0 mm 2 m/s 742 mmHg 52%
19:00 +22°C° 0 mm 1 m/s 742 mmHg 57%
20:00 +21°C° 0 mm 1 m/s 742 mmHg 59%
21:00 +20°C° 0 mm 1 m/s 743 mmHg 61%
22:00 +19°C° 0 mm 1 m/s 743 mmHg 63%
23:00 +18°C° 0 mm 1 m/s 743 mmHg 64%

Après-demain, 16 Juillet, Jeudi

Heure Température Précipitation Vent Pression Humidité
00:00 +18°C° 0 mm 1 m/s 743 mmHg 65%
01:00 +18°C° 0 mm 1 m/s 743 mmHg 66%
02:00 +18°C° 0 mm 1 m/s 743 mmHg 67%
03:00 +17°C° 0 mm 2 m/s 743 mmHg 67%
04:00 +18°C° 0 mm 2 m/s 743 mmHg 68%
05:00 +18°C° 0.1 mm 3 m/s 743 mmHg 70%
06:00 +19°C° 0.1 mm 3 m/s 744 mmHg 73%
07:00 +19°C° 0.1 mm 4 m/s 744 mmHg 75%
08:00 +19°C° 0.3 mm 3 m/s 744 mmHg 76%
09:00 +19°C° 0.3 mm 3 m/s 744 mmHg 77%
10:00 +20°C° 0.3 mm 2 m/s 744 mmHg 78%
11:00 +21°C° 0.3 mm 3 m/s 744 mmHg 72%
12:00 +22°C° 0.3 mm 3 m/s 744 mmHg 65%
13:00 +24°C° 0.3 mm 3 m/s 744 mmHg 58%
14:00 +24°C° 0.2 mm 3 m/s 744 mmHg 59%
15:00 +24°C° 0.2 mm 3 m/s 744 mmHg 60%
16:00 +24°C° 0.2 mm 3 m/s 744 mmHg 60%
17:00 +22°C° 0 mm 3 m/s 744 mmHg 63%
18:00 +21°C° 0 mm 3 m/s 744 mmHg 65%
19:00 +20°C° 0 mm 3 m/s 744 mmHg 67%
20:00 +19°C° 0 mm 3 m/s 744 mmHg 68%
21:00 +18°C° 0 mm 3 m/s 744 mmHg 70%
22:00 +18°C° 0 mm 3 m/s 745 mmHg 71%
23:00 +18°C° 0 mm 3 m/s 745 mmHg 70%

17 Juillet, Vendredi

Heure Température Précipitation Vent Pression Humidité
00:00 +18°C° 0 mm 3 m/s 744 mmHg 70%
01:00 +18°C° 0 mm 3 m/s 744 mmHg 69%
02:00 +17°C° 0 mm 4 m/s 744 mmHg 72%
03:00 +17°C° 0 mm 4 m/s 744 mmHg 75%
04:00 +17°C° 0 mm 4 m/s 744 mmHg 78%
05:00 +17°C° 0.1 mm 4 m/s 744 mmHg 78%
06:00 +17°C° 0.1 mm 3 m/s 744 mmHg 79%
07:00 +17°C° 0.1 mm 3 m/s 744 mmHg 79%
08:00 +17°C° 0.1 mm 3 m/s 745 mmHg 76%
09:00 +18°C° 0.1 mm 3 m/s 745 mmHg 73%
10:00 +18°C° 0.1 mm 3 m/s 745 mmHg 70%
11:00 +20°C° 0.2 mm 3 m/s 745 mmHg 65%
12:00 +21°C° 0.2 mm 3 m/s 745 mmHg 59%
13:00 +23°C° 0.2 mm 2 m/s 745 mmHg 54%
14:00 +24°C° 0.3 mm 2 m/s 744 mmHg 53%
15:00 +24°C° 0.3 mm 2 m/s 744 mmHg 52%
16:00 +24°C° 0.3 mm 2 m/s 744 mmHg 51%
17:00 +23°C° 0.1 mm 2 m/s 744 mmHg 56%
18:00 +21°C° 0.1 mm 2 m/s 744 mmHg 60%
19:00 +20°C° 0.1 mm 2 m/s 744 mmHg 65%
20:00 +19°C° 0 mm 3 m/s 744 mmHg 67%
21:00 +18°C° 0 mm 3 m/s 744 mmHg 69%
22:00 +17°C° 0 mm 4 m/s 744 mmHg 70%
23:00 +16°C° 0.4 mm 3 m/s 744 mmHg 77%

18 Juillet, Samedi

Heure Température Précipitation Vent Pression Humidité
00:00 +16°C° 0.4 mm 2 m/s 744 mmHg 84%
01:00 +15°C° 0.4 mm 2 m/s 744 mmHg 91%
02:00 +15°C° 1.1 mm 2 m/s 744 mmHg 93%
03:00 +15°C° 1.1 mm 2 m/s 744 mmHg 94%
04:00 +15°C° 1.1 mm 2 m/s 744 mmHg 96%
05:00 +15°C° 0.4 mm 2 m/s 744 mmHg 93%
06:00 +16°C° 0.4 mm 3 m/s 744 mmHg 90%
07:00 +16°C° 0.4 mm 3 m/s 744 mmHg 87%
08:00 +18°C° 0.1 mm 4 m/s 745 mmHg 78%
09:00 +19°C° 0.1 mm 5 m/s 745 mmHg 70%
10:00 +21°C° 0.1 mm 5 m/s 745 mmHg 61%
11:00 +22°C° 0.3 mm 5 m/s 745 mmHg 58%
12:00 +23°C° 0.3 mm 5 m/s 744 mmHg 55%
13:00 +23°C° 0.3 mm 4 m/s 744 mmHg 52%
14:00 +25°C° 0.1 mm 4 m/s 744 mmHg 51%
15:00 +25°C° 0.1 mm 4 m/s 744 mmHg 49%
16:00 +25°C° 0.1 mm 4 m/s 744 mmHg 47%
17:00 +23°C° 0 mm 4 m/s 744 mmHg 54%
18:00 +22°C° 0 mm 3 m/s 744 mmHg 60%
19:00 +20°C° 0 mm 3 m/s 744 mmHg 67%
20:00 +19°C° 0.2 mm 3 m/s 744 mmHg 72%
21:00 +18°C° 0.2 mm 3 m/s 744 mmHg 77%
22:00 +17°C° 0.2 mm 3 m/s 745 mmHg 82%
23:00 +17°C° 0.1 mm 2 m/s 745 mmHg 82%

19 Juillet, Dimanche

Heure Température Précipitation Vent Pression Humidité
00:00 +17°C° 0.1 mm 2 m/s 745 mmHg 82%
01:00 +16°C° 0.1 mm 2 m/s 745 mmHg 83%
02:00 +16°C° 0 mm 2 m/s 745 mmHg 84%
03:00 +15°C° 0 mm 2 m/s 745 mmHg 85%
04:00 +15°C° 0 mm 2 m/s 745 mmHg 86%
05:00 +16°C° 0 mm 2 m/s 745 mmHg 81%
06:00 +18°C° 0 mm 2 m/s 745 mmHg 76%
07:00 +19°C° 0 mm 2 m/s 745 mmHg 71%
08:00 +21°C° 0 mm 3 m/s 745 mmHg 65%
09:00 +22°C° 0 mm 3 m/s 745 mmHg 59%
10:00 +25°C° 0 mm 4 m/s 745 mmHg 53%
11:00 +23°C° 0.2 mm 4 m/s 745 mmHg 56%
12:00 +23°C° 0.2 mm 4 m/s 745 mmHg 58%
13:00 +23°C° 0.2 mm 4 m/s 744 mmHg 60%
14:00 +24°C° 0 mm 3 m/s 744 mmHg 57%
15:00 +25°C° 0 mm 3 m/s 744 mmHg 53%
16:00 +26°C° 0 mm 3 m/s 744 mmHg 49%
17:00 +25°C° 0 mm 2 m/s 744 mmHg 56%
18:00 +24°C° 0 mm 2 m/s 743 mmHg 63%
19:00 +23°C° 0 mm 1 m/s 743 mmHg 70%
20:00 +21°C° 0.1 mm 2 m/s 744 mmHg 73%
21:00 +20°C° 0.1 mm 2 m/s 744 mmHg 76%
22:00 +19°C° 0.1 mm 2 m/s 744 mmHg 80%
23:00 +18°C° 0 mm 2 m/s 744 mmHg 80%
Voir plus